Flag for Austria Weather past 2 weeks in Klagenfurt, Carinthia, Austria

Now
25 °F

Scattered clouds.


Feels Like: 25 °F
Forecast: 19 / 32 °F
Wind: 1 mph from North

Location: Klagenfurt-Flughafen

Current Time: Jan 31, 2015 at 5:28:34 PM

Latest Report: Jan 31, 2015 at 4:50 PM


Visibility: N/A

Pressure: 29.15 "Hg

Humidity: 86%

Dew point: 21 °F

Location of KlagenfurtLocation

Historic Weather in Klagenfurt — Graph

°F

Klagenfurt temperature yesterday

Maximum temperature yesterday: 34 °F (at 1:50 PM)
Minimum temperature yesterday: 27 °F (at 10:50 PM)
Average temperature yesterday: 31 °F

Past Weeks' High & Low Weather Summary

 TemperatureHumidityPressure
High46 °F (Jan 16, 4:20 PM)100% (Jan 17, 3:20 AM)30.24 "Hg (Jan 17, 3:20 AM)
Low14 °F (Jan 31, 7:20 AM)34% (Jan 25, 3:50 PM)28.82 "Hg (Jan 30, 8:20 AM)
Average33 °F84%29.81 "Hg
* Reported Jan 16 4:20 PM — Jan 31 4:20 PM, Klagenfurt, Weather by CustomWeather, © 2014

Note: Actual official high and low records may vary slightly from our data, if they occured in-between our weather recording intervals... More about our weather records

Advertising

Klagenfurt weather history for previous 24 hours

 ConditionsComfort  
Time TempWeatherWind HumidityBarometerVisibility
4:20 PM
Jan 31
27 °FPassing clouds.1 mph86%29.15 "HgN/A
3:50 PM28 °FPassing clouds.2 mph80%29.15 "HgN/A
3:20 PM27 °FPassing clouds.2 mph74%29.15 "HgN/A
2:50 PM28 °FPassing clouds.2 mph80%29.15 "HgN/A
2:20 PM28 °FScattered clouds.2 mph80%29.15 "HgN/A
1:50 PM27 °FPassing clouds.3 mph86%29.15 "HgN/A
1:20 PM27 °FPassing clouds.3 mph80%29.15 "HgN/A
12:50 PM25 °FPassing clouds.3 mph86%29.15 "HgN/A
12:20 PM25 °FPassing clouds.1 mph86%29.15 "HgN/A
11:50 AM25 °FPassing clouds.2 mph86%29.15 "HgN/A
11:20 AM23 °FPassing clouds.2 mph86%29.15 "HgN/A
10:50 AM21 °FPassing clouds.No wind86%29.15 "HgN/A
10:20 AM23 °FPassing clouds.2 mph86%29.15 "HgN/A
9:50 AM19 °FPassing clouds.1 mph86%29.15 "HgN/A
9:20 AM18 °FPassing clouds.1 mph93%29.12 "HgN/A
8:50 AM16 °FPassing clouds.3 mph93%29.12 "HgN/A
8:20 AM14 °FPassing clouds.5 mph92%29.12 "Hg5 mi
7:50 AM14 °FSleet. Fog.6 mph92%29.09 "Hg5 mi
7:20 AM14 °FFog.5 mph92%29.09 "Hg5 mi
6:50 AM16 °FPassing clouds.5 mph93%29.06 "HgN/A
6:20 AM16 °FPassing clouds.3 mph93%29.06 "Hg4 mi
5:50 AM18 °FSleet. Overcast.6 mph93%29.03 "Hg3 mi
5:20 AM18 °FLight freezing rain. Passing clouds.5 mph93%29.03 "Hg2 mi
4:50 AM19 °FSleet. Overcast.6 mph93%29.00 "Hg1 mi
3:50 AM23 °FIce fog.6 mph93%29.00 "Hg1 mi
3:20 AM23 °FSnow flurries. Ice fog.5 mph100%29.00 "Hg1 mi
2:50 AM23 °FMixture of precip. Passing clouds.5 mph93%29.00 "Hg2 mi
2:20 AM23 °FLight freezing rain. Passing clouds.5 mph93%28.97 "Hg3 mi
1:50 AM23 °FSleet. Passing clouds.3 mph100%28.97 "Hg1 mi
1:20 AM25 °FIce fog.7 mph100%28.97 "Hg1 mi
12:50 AM25 °FPassing clouds.5 mph100%28.94 "Hg0 mi
12:20 AM25 °FPassing clouds.5 mph100%28.94 "Hg2 mi
11:50 PM
Jan 30
27 °FPassing clouds.5 mph93%28.91 "Hg2 mi
11:20 PM27 °FPartly cloudy.3 mph93%28.91 "Hg1 mi
10:50 PM27 °FPartly cloudy.5 mph100%28.91 "Hg1 mi
10:20 PM28 °FChilly.6 mph100%28.91 "Hg1 mi
9:50 PM28 °FChilly.3 mph100%28.88 "Hg1 mi
9:20 PM28 °FPartly cloudy.2 mph100%28.88 "Hg2 mi
8:50 PM28 °FLight freezing rain. Fog.3 mph100%28.88 "Hg2 mi
8:20 PM30 °FLight freezing rain. Passing clouds.2 mph93%28.88 "Hg3 mi
7:50 PM30 °FFog.3 mph100%28.88 "Hg4 mi
7:20 PM30 °FPassing clouds.1 mph93%28.88 "HgN/A
6:50 PM30 °FOvercast.1 mph100%28.88 "HgN/A
6:20 PM30 °FOvercast.1 mph100%28.85 "HgN/A
5:50 PM32 °FOvercast.2 mph93%28.85 "HgN/A
5:20 PM32 °FPassing clouds.3 mph93%28.85 "HgN/A
Weather by CustomWeather, © 2014

See weather overviewHow to use our weather pages